sat.trackr.live / text

‹ back to catalog

SRMSAT

NORAD 37841 · 2011-058D

PAYLOAD ACTIVE UNKNOWN

§ Identity

Operator
Country
IND
Launch date
2011-10-12
Launch site
SRILR
Launch vehicle
Mass (kg)
RCS (m²)
0.20

Purposes: comms, earth_obs

External: N2YO · Heavens-Above · Gunter

§ Orbital elements

Epoch: 2026-09-03T04:24:57.364128Z

Period
102.01 min
Inclination
19.9724°
Eccentricity
0.0011771
Mean motion
14.11590090 rev/d
Perigee alt
845.4 km
Apogee alt
862.4 km
Semi-major
7,232.1 km
B*
5.0299e-5
RAAN
307.3668°
Arg perigee
343.1487°
Mean anomaly
42.0039°
Rev number
76,885

§ Raw data

SRMSAT1 37841U 11058D   26246.18399727  .00000358  00000+0  50299-4 0  99982 37841  19.9724 307.3668 0011771 343.1487  42.0039 14.11590090768859

JSON: /api/v1/satellites/37841 · /tle

For live sub-satellite position, see the globe view (requires WebGL).

§ Visibility from observer

Set your observer location to see the next 7 days of passes ≥ 10°. The values pass through the URL so the page stays shareable.

No JS? Fill the form by hand. The geolocation button needs JavaScript.

§ Radio — SatNOGS DB

ModeDescriptionDownlinkUplink
CW CW Beacon 437.425 MHz

1 transmitter · refreshed weekly from db.satnogs.org